Погода в Уманцево

Россия / Республика Калмыкия     47°44′01″N   44°16′19″E
темп.,
°C
ветер,
м/с
пор.,
м/с
влажн.,
%
обл.,
%
осадки,
мм/ч
давл.,
гПа
погр.,
м
24 мая, вт
вт2400:00+10с357973 0.0 100790
03:00+9ссз338081 0.0 100831
06:00+10ссв2474100 0.0 1009147
09:00+14ссз344998 0.0 1010969
12:00+16сз66415 0.0 10102007
15:00+17сз553869 0.0 10102320
18:00+16сз454038 0.0 10111976
21:00+13сз3655100 0.0 1012222
25 мая, ср
ср2500:00+11зсз46629 0.0 101394
03:00+10з476493 0.0 1014109
06:00+12з486596 0.0 1015258
09:00+17зсз57409 0.0 10151955
12:00+19зсз783688 0.0 10162644
15:00+18з783699 0.0 10162074
18:00+16зсз585378 0.0 1017528
21:00+15з366377 0.0 1018183
26 мая, чт
чт2600:00+13зюз4969100 0.0 1018212
03:00+13з486993 0.1 1018253
06:00+12св338384 0.3 1019165
09:00+16ссз12594 0.3 1019953
12:00+19сз344068 0.1 10182316
15:00+20сз6536100 0.1 10182454
18:00+20зсз343978 0.0 10181714
21:00+17ююз3450100 0.0 101849
27 мая, пт
пт2700:00+16юз4962100 0.1 1017275
03:00+14зюз71272100 0.2 1017659
06:00+14юз61276100 0.0 1016700
09:00+18зюз911585 0.0 10161076
12:00+21зюз9104849 0.0 10152047
15:00+23з8103961 0.0 10142459
18:00+20з695498 0.0 10151151
21:00+16юз597265 0.0 1016177
28 мая, сб
сб2800:00+15зюз49792 0.0 1016164
03:00+14юз47810 0.0 1016125
06:00+15юз58806 0.0 1016245
09:00+21юз68552 0.0 1015828
12:00+24юз5644100 0.1 10162216
15:00+26юз573633 0.1 10152490
18:00+23ю345095 0.0 101567
21:00+22юв3447100 0.0 101557